[[{"header":{"parameterUnit":"m.s-1","parameterCategory":1,"la1":30.2991,"la2":30.254,"lo1":-89.0895,"lo2":-89.0444,"dy":0.0017,"dx":0.0017,"nx":28,"ny":28,"refTime":"2025-07-27T09:00:00:Z","depth":0,"parameterNumber":2,"parameterNumberName":"U-component_of_WINDS"},"data":[0,0,0,0,0,0,0,0,0,0,0,0,0,0,0,0,0,0,0,0,0,0,0,0,0,0,0,0,0,0,0,0,0,0,0,0,0,0,0,0,0,0,0,0,0,0,0,0,0,0,0,0,0,0,0,0,0,0,0.6656,0.6657,0,0.6717,0.6717,0.6718,0.6727,0.6726,0.6726,0.6725,0.679,0.6792,0.6794,0,0,0,0,0,0,0,0,0,0,0,0,0,0.6552,0.6554,0.6656,0.6657,0.6658,0.6717,0.6718,0.6718,0.6727,0.6726,0.6726,0.6725,0.6789,0.6792,0.6794,0,0,0,0,0,0,0,0,0,0,0,0,0,0.6603,0.6554,0.6656,0.6669,0.6671,0.6717,0.6718,0.6719,0.6727,0.6726,0.6726,0.6725,0.6788,0.6791,0.6795,0.6832,0,0,0.6805,0.6806,0,0,0,0,0,0,0,0,0.66,0.6607,0.6667,0.6668,0.667,0.6713,0.6704,0.6757,0.6728,0.6706,0.6725,0.6724,0.6765,0.677,0.6784,0.6835,0.6838,0.6805,0.6807,0.6809,0.681,0,0,0,0,0,0,0,0.6597,0.6605,0.668,0.6667,0.667,0.6673,0.668,0.6714,0.674,0.6708,0.6709,0.6715,0.6766,0.678,0.6785,0.6839,0.6805,0.6808,0.681,0.6811,0.6927,0.6928,0,0,0,0,0,0,0.659,0.6602,0.6678,0.6682,0.6633,0.6676,0.6683,0.6701,0.6739,0.6744,0.6716,0.6716,0.6775,0.6781,0.6788,0.6836,0.6809,0.6812,0.6814,0.6926,0.6927,0.6928,0,0,0,0,0,0,0.6588,0.6597,0.6676,0.6642,0.6652,0.6678,0.6698,0.6702,0.6716,0.6746,0.675,0.6726,0.6775,0.6783,0.6821,0.6838,0.6813,0.6816,0.6925,0.6926,0.6928,0.6932,0,0,0,0,0,0,0.6585,0.6596,0.661,0.6642,0.6654,0.6708,0.6699,0.6704,0.6722,0.6722,0.6756,0.6761,0.6775,0.6816,0.6825,0.6842,0.6819,0.6923,0.6925,0.6927,0.693,0.6933,0.6936,0,0,0,0,0,0.6581,0.6608,0.661,0.662,0.6671,0.6709,0.6716,0.673,0.6723,0.6738,0.6757,0.676,0.6835,0.682,0.683,0.6849,0.6922,0.6925,0.6927,0.6929,0.6933,0.6936,0,0,0,0,0,0,0.6578,0.6613,0.6616,0.6654,0.6678,0.671,0.6729,0.6733,0.6761,0.676,0.6777,0.6785,0.6823,0.684,0.6823,0.6888,0.6878,0.6883,0.6876,0.688,0.6883,0.6879,0.6822,0,0,0,0,0,0.6581,0.6607,0.6637,0.6668,0.668,0.6702,0.6719,0.6728,0.6755,0.6765,0.6787,0.6813,0.6843,0.6862,0.6891,0.6932,0.6941,0.695,0.6953,0.6955,0.6959,0.6985,0.699,0.6936,0.6936,0.6936,0,0,0.6589,0.6612,0.6627,0.6668,0.6688,0.6716,0.6711,0.6741,0.6762,0.677,0.6808,0.6825,0.6856,0.6896,0.6915,0.6911,0.6976,0.6958,0.6959,0.6963,0.6988,0.6993,0.6997,0.6938,0.6937,0.6937,0,0,0.6618,0.6637,0.6666,0.6686,0.6716,0.6731,0.6738,0.677,0.6781,0.682,0.6827,0.6853,0.6903,0.6926,0.6943,0.6983,0.6987,0.6991,0.7007,0.7031,0.7035,0.7039,0.7055,0.7061,0.6995,0.6995,0.6995,0,0.6624,0.6666,0.668,0.671,0.6729,0.6737,0.6767,0.6786,0.6825,0.6838,0.6833,0.6897,0.6918,0.6966,0.6975,0.6989,0.6999,0.6988,0.7033,0.7038,0.7041,0.7057,0.7063,0.6996,0.6996,0.6995,0.6995,0,0.6673,0.6702,0.6722,0.6759,0.678,0.681,0.683,0.685,0.6858,0.6874,0.6914,0.6939,0.6975,0.6986,0.6994,0.7035,0.7032,0.703,0.702,0.7047,0.7062,0.7068,0.6996,0.6996,0.6996,0.6996,0,0,0.6702,0.6747,0.6754,0.6772,0.6806,0.683,0.6861,0.6895,0.6913,0.6939,0.6967,0.701,0.7009,0.7029,0.704,0.7061,0.7093,0.7057,0.7058,0.7064,0.7143,0.7146,0.7152,0.7096,0.7097,0.7098,0.7141,0,0.6736,0.6791,0.6806,0.6853,0.6882,0.689,0.6918,0.6943,0.6959,0.6986,0.7004,0.7035,0.703,0.7043,0.7064,0.7085,0.711,0.7082,0.7124,0.7125,0.7118,0.716,0.7163,0.7202,0.7147,0.7148,0.7149,0,0.6784,0.6811,0.6862,0.6895,0.6907,0.6931,0.6965,0.699,0.702,0.703,0.7054,0.7062,0.7097,0.7085,0.7134,0.7115,0.7133,0.7146,0.7148,0.7154,0.714,0.7169,0.7215,0.7222,0.7158,0.7157,0.7156,0,0.6802,0.6852,0.6889,0.6904,0.6942,0.696,0.6977,0.7005,0.7025,0.7055,0.7069,0.7102,0.712,0.7147,0.7165,0.7154,0.7214,0.7202,0.7225,0.7225,0.7238,0.7237,0.729,0.7247,0.7247,0.7247,0.7246,0,0.684,0.6871,0.6898,0.6921,0.6957,0.6974,0.7009,0.7026,0.7052,0.708,0.7089,0.7115,0.7137,0.7166,0.7181,0.7221,0.7229,0.7239,0.7243,0.724,0.7239,0.7253,0.7252,0.7248,0.7248,0.7247,0.7247,0,0.6867,0.6886,0.6927,0.6961,0.697,0.6995,0.7025,0.7048,0.7065,0.71,0.7109,0.7136,0.7171,0.7192,0.7236,0.7246,0.7291,0.7293,0.7281,0.7283,0.7306,0.7304,0.7371,0.7381,0.7329,0.733,0.733,0,0.6891,0.6915,0.6951,0.697,0.6988,0.7018,0.7039,0.7057,0.7079,0.7115,0.7135,0.7171,0.72,0.7257,0.7281,0.7316,0.732,0.7341,0.7325,0.7321,0.7323,0.7322,0.7325,0.7344,0.7344,0.7345,0.7345,0,0.6932,0.6941,0.697,0.7003,0.7028,0.7055,0.7081,0.7097,0.712,0.7144,0.718,0.7203,0.7249,0.7286,0.7323,0.7342,0.7348,0.7349,0.7357,0.7354,0.7348,0.7354,0.7291,0.7348,0.7348,0.7348,0.7347,0.7347,0.696,0.6983,0.7012,0.7045,0.7067,0.7092,0.7117,0.7137,0.7167,0.7206,0.7214,0.7253,0.7284,0.7335,0.7355,0.7386,0.7383,0.7393,0.7396,0.7399,0.7401,0.7341,0.7393,0.7393,0.7393,0.7393,0.7393,0,0.7003,0.7023,0.7053,0.7091,0.7117,0.7119,0.715,0.7172,0.7206,0.7234,0.7263,0.7306,0.7342,0.7369,0.7406,0.7426,0.743,0.7436,0.7435,0.744,0.7401,0.7391,0.7432,0.7432,0.7432,0.7432,0.7432,0.7432,0.7029,0.7069,0.7081,0.7132,0.7152,0.719,0.7207,0.7231,0.7254,0.7301,0.7331,0.7348,0.7376,0.7416,0.7449,0.7456,0.7471,0.7476,0.7484,0.7447,0.7443,0.7439,0.743,0.7478,0.7478,0.7521,0.7521,0.7522]},{"header":{"parameterUnit":"m.s-1","parameterCategory":1,"la1":30.2991,"la2":30.254,"lo1":-89.0895,"lo2":-89.0444,"dy":0.0017,"dx":0.0017,"nx":28,"ny":28,"refTime":"2025-07-27T09:00:00:Z","depth":0,"parameterNumber":3,"parameterNumberName":"V-component_of_WINDS"},"data":[0,0,0,0,0,0,0,0,0,0,0,0,0,0,0,0,0,0,0,0,0,0,0,0,0,0,0,0,0,0,0,0,0,0,0,0,0,0,0,0,0,0,0,0,0,0,0,0,0,0,0,0,0,0,0,0,0,0,-1.4243,-1.4243,0,-1.4228,-1.4228,-1.4228,-1.4283,-1.4284,-1.4286,-1.4288,-1.4268,-1.4266,-1.4264,0,0,0,0,0,0,0,0,0,0,0,0,0,-1.4317,-1.4316,-1.4243,-1.4243,-1.4243,-1.4228,-1.4228,-1.4228,-1.4282,-1.4284,-1.4286,-1.4288,-1.4269,-1.4267,-1.4264,0,0,0,0,0,0,0,0,0,0,0,0,0,-1.4292,-1.4315,-1.4244,-1.4269,-1.4271,-1.4228,-1.4228,-1.4228,-1.4282,-1.4284,-1.4287,-1.4289,-1.427,-1.4267,-1.4264,-1.4196,0,0,-1.4254,-1.4253,0,0,0,0,0,0,0,0,-1.4293,-1.4289,-1.4265,-1.4267,-1.4269,-1.426,-1.4247,-1.4217,-1.4281,-1.4278,-1.4288,-1.429,-1.4263,-1.4261,-1.4253,-1.4195,-1.4194,-1.4254,-1.4252,-1.4251,-1.425,0,0,0,0,0,0,0,-1.4295,-1.429,-1.4237,-1.4265,-1.4267,-1.428,-1.4279,-1.4242,-1.4257,-1.4278,-1.4282,-1.428,-1.4265,-1.4255,-1.4253,-1.4194,-1.4254,-1.4252,-1.425,-1.4248,-1.4082,-1.4079,0,0,0,0,0,0,-1.4294,-1.4291,-1.4238,-1.4237,-1.4288,-1.4277,-1.4276,-1.426,-1.4257,-1.4259,-1.4278,-1.4282,-1.4259,-1.4256,-1.4252,-1.4174,-1.4251,-1.4248,-1.4246,-1.4084,-1.4081,-1.4078,0,0,0,0,0,0,-1.4295,-1.4289,-1.4239,-1.4265,-1.426,-1.4273,-1.4255,-1.4259,-1.425,-1.4257,-1.426,-1.4265,-1.4261,-1.4256,-1.421,-1.4174,-1.4247,-1.4244,-1.4087,-1.4083,-1.408,-1.4017,0,0,0,0,0,0,-1.4297,-1.4289,-1.4263,-1.4264,-1.4258,-1.4197,-1.4253,-1.4257,-1.4245,-1.4251,-1.4246,-1.4248,-1.4263,-1.4214,-1.4207,-1.4171,-1.4242,-1.4091,-1.4086,-1.4081,-1.4022,-1.4011,-1.4002,0,0,0,0,0,-1.43,-1.4245,-1.4262,-1.4255,-1.4227,-1.4195,-1.4191,-1.4211,-1.4241,-1.4216,-1.4221,-1.4248,-1.4179,-1.4209,-1.4201,-1.4164,-1.4093,-1.4087,-1.4081,-1.4027,-1.4013,-1.4002,0,0,0,0,0,0,-1.4237,-1.4245,-1.4264,-1.4208,-1.4201,-1.4204,-1.4173,-1.4196,-1.4178,-1.4185,-1.4208,-1.4207,-1.4157,-1.4156,-1.4189,-1.4099,-1.4141,-1.4134,-1.4102,-1.409,-1.408,-1.4082,-1.4239,0,0,0,0,0,-1.4217,-1.4192,-1.4199,-1.4149,-1.4145,-1.4159,-1.4146,-1.4162,-1.4155,-1.4151,-1.4153,-1.4144,-1.4121,-1.4105,-1.4084,-1.4022,-1.4023,-1.3992,-1.3982,-1.3974,-1.3967,-1.3937,-1.3925,-1.4059,-1.4059,-1.4059,0,0,-1.4175,-1.4176,-1.4158,-1.4137,-1.4133,-1.4106,-1.4156,-1.4124,-1.4105,-1.4146,-1.4104,-1.4105,-1.4096,-1.4043,-1.4019,-1.404,-1.393,-1.3966,-1.396,-1.3958,-1.393,-1.3917,-1.3906,-1.4055,-1.4056,-1.4057,0,0,-1.4085,-1.4082,-1.4042,-1.4038,-1.4032,-1.4043,-1.4033,-1.4033,-1.4036,-1.3994,-1.4026,-1.4002,-1.396,-1.3954,-1.3945,-1.3855,-1.388,-1.3847,-1.3795,-1.3765,-1.3754,-1.3745,-1.3715,-1.3704,-1.384,-1.384,-1.384,0,-1.4033,-1.3994,-1.4017,-1.3985,-1.3976,-1.4014,-1.3973,-1.3967,-1.3954,-1.3946,-1.397,-1.3921,-1.3918,-1.3865,-1.3843,-1.3834,-1.3824,-1.3849,-1.3754,-1.3745,-1.3737,-1.3709,-1.3697,-1.3837,-1.3837,-1.3837,-1.3838,0,-1.3932,-1.3905,-1.3872,-1.3862,-1.3848,-1.3811,-1.3829,-1.3812,-1.3829,-1.3837,-1.3795,-1.3793,-1.3773,-1.3761,-1.3776,-1.371,-1.3724,-1.375,-1.3793,-1.372,-1.3694,-1.3683,-1.3831,-1.3833,-1.3834,-1.3835,0,0,-1.3802,-1.3806,-1.3794,-1.3791,-1.3788,-1.3767,-1.3733,-1.3715,-1.3701,-1.3691,-1.3663,-1.3629,-1.3654,-1.3644,-1.3659,-1.3633,-1.3565,-1.3663,-1.3663,-1.3647,-1.3494,-1.3476,-1.3463,-1.3581,-1.3579,-1.3577,-1.3496,0,-1.3715,-1.3659,-1.3679,-1.3621,-1.3597,-1.3633,-1.3603,-1.3598,-1.3605,-1.3585,-1.3592,-1.3568,-1.3602,-1.3597,-1.3572,-1.3578,-1.3535,-1.3584,-1.3556,-1.3555,-1.3559,-1.3449,-1.3429,-1.3352,-1.3486,-1.3484,-1.3483,0,-1.3607,-1.3596,-1.3535,-1.354,-1.353,-1.3503,-1.349,-1.347,-1.3466,-1.3473,-1.3463,-1.3484,-1.3451,-1.3493,-1.3447,-1.3481,-1.347,-1.3471,-1.3469,-1.3468,-1.3515,-1.3447,-1.3328,-1.3318,-1.3466,-1.3468,-1.3469,0,-1.3521,-1.349,-1.3451,-1.3447,-1.345,-1.343,-1.343,-1.3428,-1.3417,-1.3405,-1.3399,-1.3382,-1.3373,-1.336,-1.3376,-1.3405,-1.3329,-1.3372,-1.3335,-1.3334,-1.3318,-1.3319,-1.3198,-1.3308,-1.3308,-1.3308,-1.3308,0,-1.3424,-1.3386,-1.3413,-1.3389,-1.3348,-1.3372,-1.3331,-1.3334,-1.3333,-1.331,-1.3339,-1.3317,-1.334,-1.3319,-1.3332,-1.3294,-1.3289,-1.3294,-1.3298,-1.3293,-1.3292,-1.3287,-1.3294,-1.3305,-1.3306,-1.3306,-1.3307,0,-1.3322,-1.3338,-1.3298,-1.3305,-1.3306,-1.3276,-1.3282,-1.326,-1.3269,-1.324,-1.3235,-1.3249,-1.3227,-1.3242,-1.3219,-1.3228,-1.3179,-1.3189,-1.3181,-1.3185,-1.3147,-1.3152,-1.302,-1.3005,-1.3122,-1.3121,-1.312,0,-1.326,-1.3232,-1.3237,-1.3225,-1.3224,-1.3204,-1.3194,-1.3216,-1.3204,-1.3198,-1.3177,-1.3158,-1.3144,-1.3107,-1.3115,-1.3099,-1.311,-1.3065,-1.3108,-1.3104,-1.3112,-1.3115,-1.3113,-1.3057,-1.3056,-1.3054,-1.3053,0,-1.3148,-1.3159,-1.3144,-1.3132,-1.3119,-1.311,-1.3104,-1.3092,-1.3115,-1.3099,-1.3079,-1.3068,-1.3047,-1.3028,-1.3015,-1.3014,-1.3038,-1.304,-1.3031,-1.3026,-1.3024,-1.3027,-1.316,-1.3043,-1.3044,-1.3045,-1.3045,-1.3046,-1.3066,-1.3044,-1.3046,-1.3028,-1.3026,-1.302,-1.3001,-1.3009,-1.2992,-1.2978,-1.2991,-1.2967,-1.2964,-1.2949,-1.2946,-1.2927,-1.2946,-1.2932,-1.2929,-1.2926,-1.2922,-1.3025,-1.2924,-1.2925,-1.2925,-1.2925,-1.2925,0,-1.2959,-1.2962,-1.2946,-1.2937,-1.2924,-1.2948,-1.2943,-1.293,-1.2909,-1.2905,-1.2892,-1.2869,-1.2851,-1.2858,-1.2843,-1.2827,-1.2837,-1.2822,-1.2824,-1.2824,-1.2905,-1.2915,-1.2814,-1.2814,-1.2814,-1.2814,-1.2814,-1.2814,-1.2901,-1.2867,-1.2877,-1.2842,-1.2845,-1.2823,-1.2818,-1.2813,-1.2811,-1.2785,-1.2771,-1.2776,-1.2777,-1.2763,-1.2748,-1.275,-1.2744,-1.2726,-1.2732,-1.2807,-1.2818,-1.2829,-1.2839,-1.2723,-1.2723,-1.2654,-1.2653,-1.2653]}]]